Weather History for KMRJ - January, 2014

Change the Weather History Date:

Thursday, January 9, 2014

  Actual Average (KLNR) Record (KLNR)
Temperature  
Mean Temperature 10 °F -  
Max Temperature 23 °F 25 °F 50 °F (2002)
Min Temperature -2 °F 11 °F -20 °F (2014)
Degree Days  
Heating Degree Days 54    
Moisture  
Dew Point 4 °F    
Average Humidity 75    
Maximum Humidity 93    
Minimum Humidity 57    
Precipitation  
Precipitation 0.00 in - - ()
Sea Level Pressure  
Sea Level Pressure 30.26 in    
Wind  
Wind Speed 6 mph (SE)    
Max Wind Speed 12 mph    
Max Gust Speed -    
Averages and records for this station are not official NWS values.
T = Trace of Precipitation, MM = Missing Value Source: NWS Daily Summary

Daily Weather History Graph

Daily Weather History Graph

Search for Another Location

Airport or City:

Trip Planner

Search our weather history database for the weather conditions in past years. The results will help you decide how hot, cold, wet, or windy it might be!

Date:

Astronomy

Jan. 09, 2014 Rise Set
Actual Time 7:31 AM CST 4:45 PM CST
Civil Twilight 6:59 AM CST 5:17 PM CST
Nautical Twilight 6:24 AM CST 5:52 PM CST
Astronomical Twilight 5:50 AM CST 6:26 PM CST
Moon 12:15 PM CST (1/9) 1:35 AM CST (1/9)
Length of Visible Light 10h 17m
Length of Day
9h 14m
Waxing Gibbous, 66% of the Moon is Illuminated
Jan 9
Waxing Gibbous
Jan 15
Full
Jan 23
Last Quarter
Jan 30
New
Feb 6
First Quarter

Hourly Weather History & Observations

Time (CST) Temp. Windchill Dew Point Humidity Pressure Visibility Wind Dir Wind Speed Gust Speed Precip Events Conditions
12:15 AM -2.2 °F - -7.6 °F 78% 30.43 in - Calm Calm - N/A   Clear
12:35 AM 1.4 °F -6.2 °F -7.6 °F 66% 30.43 in - ENE 3.5 mph - N/A   Clear
12:55 AM -0.4 °F - -7.6 °F 72% 30.43 in - Calm Calm - N/A   Clear
1:15 AM -0.4 °F -10.4 °F -7.6 °F 72% 30.42 in - ENE 4.6 mph - N/A   Clear
1:35 AM -0.4 °F -10.4 °F -7.6 °F 72% 30.42 in - ENE 4.6 mph - N/A   Clear
1:55 AM 1.4 °F - -7.6 °F 66% 30.43 in - Calm Calm - N/A   Clear
2:15 AM -0.4 °F -10.4 °F -7.6 °F 72% 30.44 in - ESE 4.6 mph - N/A   Clear
2:35 AM -0.4 °F -8.3 °F -7.6 °F 72% 30.43 in - ESE 3.5 mph - N/A   Clear
2:55 AM -0.4 °F -12.0 °F -7.6 °F 72% 30.43 in - ESE 5.8 mph - N/A   Clear
3:15 AM -0.4 °F -12.0 °F -9.4 °F 66% 30.42 in - ESE 5.8 mph - N/A   Clear
3:35 AM -2.2 °F -15.6 °F -9.4 °F 71% 30.42 in - ESE 6.9 mph - N/A   Clear
3:55 AM -2.2 °F -14.2 °F -9.4 °F 71% 30.41 in - ESE 5.8 mph - N/A   Clear
4:15 AM -0.4 °F -13.4 °F -7.6 °F 72% 30.40 in - ESE 6.9 mph - N/A   Clear
4:35 AM -0.4 °F -12.0 °F -7.6 °F 72% 30.40 in - ESE 5.8 mph - N/A   Clear
4:55 AM -0.4 °F -12.0 °F -7.6 °F 72% 30.39 in - ESE 5.8 mph - N/A   Clear
5:15 AM -0.4 °F -12.0 °F -7.6 °F 72% 30.39 in - ESE 5.8 mph - N/A   Clear
5:35 AM -0.4 °F -12.0 °F -7.6 °F 72% 30.38 in - ESE 5.8 mph - N/A   Clear
5:55 AM -0.4 °F -12.0 °F -7.6 °F 72% 30.38 in - ESE 5.8 mph - N/A   Clear
6:15 AM -0.4 °F -13.4 °F -7.6 °F 72% 30.38 in - SE 6.9 mph - N/A   Clear
6:35 AM -2.2 °F -12.5 °F -7.6 °F 78% 30.38 in - SE 4.6 mph - N/A   Clear
6:55 AM -2.2 °F -14.2 °F -7.6 °F 78% 30.37 in - SE 5.8 mph - N/A   Clear
7:15 AM -0.4 °F -13.4 °F -7.6 °F 72% 30.36 in - SE 6.9 mph - N/A   Clear
7:35 AM -2.2 °F -16.8 °F -7.6 °F 78% 30.36 in - ESE 8.1 mph - N/A   Clear
7:55 AM -0.4 °F -15.7 °F -7.6 °F 72% 30.35 in - SE 9.2 mph - N/A   Clear
8:15 AM -0.4 °F -15.7 °F -7.6 °F 72% 30.35 in - SE 9.2 mph - N/A   Clear
8:35 AM 1.4 °F -13.5 °F -5.8 °F 72% 30.35 in - SE 9.2 mph - N/A   Clear
8:55 AM 3.2 °F -10.3 °F -5.8 °F 66% 30.35 in - SE 8.1 mph - N/A   Clear
9:15 AM 5.0 °F -8.1 °F -5.8 °F 61% 30.35 in - SE 8.1 mph - N/A   Clear
9:35 AM 5.0 °F -9.1 °F -4.0 °F 66% 30.34 in - SE 9.2 mph - N/A   Clear
9:55 AM 6.8 °F -7.8 °F -4.0 °F 61% 30.34 in - SE 10.4 mph - N/A   Clear
10:15 AM 8.6 °F -4.7 °F -4.0 °F 57% 30.33 in - SE 9.2 mph - N/A   Mostly Cloudy
10:35 AM 8.6 °F -3.7 °F -2.2 °F 62% 30.32 in - SE 8.1 mph - N/A   Overcast
10:55 AM 10.4 °F -2.4 °F -0.4 °F 62% 30.32 in - SE 9.2 mph - N/A   Overcast
11:15 AM 12.2 °F -0.2 °F 1.4 °F 62% 30.30 in - SE 9.2 mph - N/A   Overcast
11:35 AM 14.0 °F 2.0 °F 3.2 °F 62% 30.28 in - SE 9.2 mph - N/A   Overcast
11:55 AM 14.0 °F 0.5 °F 5.0 °F 67% 30.26 in - SE 11.5 mph - N/A   Overcast
12:15 PM 15.8 °F 3.4 °F 5.0 °F 62% 30.26 in - SE 10.4 mph - N/A   Overcast
12:35 PM 17.6 °F 5.0 °F 5.0 °F 58% 30.25 in - SSE 11.5 mph - N/A   Overcast
12:55 PM 17.6 °F 5.7 °F 6.8 °F 63% 30.23 in - SSE 10.4 mph - N/A   Overcast
1:15 PM 19.4 °F 7.9 °F 8.6 °F 63% 30.22 in - SSE 10.4 mph - N/A   Scattered Clouds
1:35 PM 17.6 °F 6.4 °F 8.6 °F 68% 30.21 in - SE 9.2 mph - N/A   Mostly Cloudy
1:55 PM 17.6 °F 7.3 °F 8.6 °F 68% 30.21 in - SE 8.1 mph - N/A   Overcast
2:35 PM 19.4 °F 10.4 °F 10.4 °F 68% 30.19 in - ESE 6.9 mph - N/A   Overcast
2:55 PM 19.4 °F 8.6 °F 10.4 °F 68% 30.18 in - ESE 9.2 mph - N/A   Overcast
3:15 PM 19.4 °F 8.6 °F 10.4 °F 68% 30.18 in - SE 9.2 mph - N/A   Overcast
3:35 PM 19.4 °F 7.9 °F 10.4 °F 68% 30.17 in - SE 10.4 mph - N/A   Overcast
3:55 PM 19.4 °F 8.6 °F 12.2 °F 74% 30.17 in - SE 9.2 mph - N/A   Overcast
4:15 PM 19.4 °F 8.6 °F 12.2 °F 74% 30.16 in - SE 9.2 mph - N/A   Overcast
5:15 PM 19.4 °F 9.5 °F 14.0 °F 80% 30.15 in - ESE 8.1 mph - N/A   Overcast
5:35 PM 19.4 °F 9.5 °F 14.0 °F 80% 30.14 in - SE 8.1 mph - N/A   Overcast
5:55 PM 19.4 °F 9.5 °F 14.0 °F 80% 30.14 in - SE 8.1 mph - N/A   Overcast
6:15 PM 19.4 °F 9.5 °F 15.8 °F 86% 30.13 in - SE 8.1 mph - N/A   Overcast
6:35 PM 19.4 °F 10.4 °F 15.8 °F 86% 30.13 in - SE 6.9 mph - N/A   Overcast
6:55 PM 21.2 °F 11.7 °F 17.6 °F 86% 30.12 in - SE 8.1 mph - N/A   Overcast
7:15 PM 21.2 °F 11.7 °F 17.6 °F 86% 30.12 in - SE 8.1 mph - N/A   Overcast
7:35 PM 21.2 °F 10.9 °F 17.6 °F 86% 30.12 in - SE 9.2 mph - N/A   Overcast
7:55 PM 21.2 °F 10.1 °F 17.6 °F 86% 30.12 in - SSE 10.4 mph - N/A   Overcast
8:15 PM 21.2 °F 11.7 °F 17.6 °F 86% 30.12 in - SSE 8.1 mph - N/A   Overcast
8:35 PM 21.2 °F 10.9 °F 19.4 °F 93% 30.12 in - SSE 9.2 mph - N/A   Overcast
8:55 PM 21.2 °F 10.9 °F 19.4 °F 93% 30.11 in - SSE 9.2 mph - N/A   Overcast
9:15 PM 21.2 °F 10.1 °F 19.4 °F 93% 30.10 in - SSE 10.4 mph - N/A   Overcast
9:35 PM 21.2 °F 10.9 °F 19.4 °F 93% 30.09 in - SSE 9.2 mph - N/A   Overcast
9:55 PM 23.0 °F 12.4 °F 19.4 °F 86% 30.09 in - SSE 10.4 mph - N/A   Overcast
10:15 PM 23.0 °F 12.4 °F 19.4 °F 86% 30.08 in - SSE 10.4 mph - N/A   Overcast
10:35 PM 23.0 °F 13.9 °F 21.2 °F 93% 30.08 in - SSE 8.1 mph - N/A   Overcast
10:55 PM 23.0 °F 13.9 °F 21.2 °F 93% 30.07 in - SSE 8.1 mph - N/A   Overcast
11:15 PM 23.0 °F 13.9 °F 21.2 °F 93% 30.06 in - SSE 8.1 mph - N/A   Overcast
11:35 PM 23.0 °F 13.9 °F 21.2 °F 93% 30.05 in - SSE 8.1 mph - N/A   Overcast
11:55 PM 23.0 °F 13.1 °F 21.2 °F 93% 30.04 in - SSE 9.2 mph - N/A   Overcast